Alpena, MI

5:25 AM EDT on September 29, 2016 (GMT -0400)
Alpena County Regional

Weather History for KAPN - July, 2013

Change the Weather History Date:

Sunday, July 7, 2013

  Actual Average Record
Temperature  
Mean Temperature 74 °F 67 °F  
Max Temperature 88 °F 79 °F 100 °F (1988)
Min Temperature 60 °F 55 °F 36 °F (1969)
Degree Days  
Heating Degree Days 0 2  
Month to date heating degree days 14 14  
Since 1 June heating degree days 150 157  
Since 1 July heating degree days 14 14  
Cooling Degree Days 9 4  
Month to date cooling degree days 26 25  
Year to date cooling degree days 103 94  
Since 1 June cooling degree days 90 81  
Growing Degree Days 24 (Base 50)    
Moisture  
Dew Point 62 °F    
Average Humidity 69    
Maximum Humidity 97    
Minimum Humidity 40    
Precipitation  
Precipitation 0.00 in 0.10 in 1.53 in (1977)
Month to date precipitation T 0.68  
Year to date precipitation 16.96 13.20  
Sea Level Pressure  
Sea Level Pressure 29.95 in    
Wind  
Wind Speed 4 mph (WSW)    
Max Wind Speed 14 mph    
Max Gust Speed 26 mph    
Visibility 9 miles    
Events Rain    
T = Trace of Precipitation, MM = Missing Value Source: NWS Daily Summary

Daily Weather History Graph

Daily Weather History Graph

Search for Another Location

Airport or City:

Trip Planner

Search our weather history database for the weather conditions in past years. The results will help you decide how hot, cold, wet, or windy it might be!

Date:

Astronomy

Jul. 07, 2013 Rise Set
Actual Time 5:55 AM EDT 9:22 PM EDT
Civil Twilight 5:18 AM EDT 9:59 PM EDT
Nautical Twilight 4:29 AM EDT 10:47 PM EDT
Astronomical Twilight 3:27 AM EDT 11:49 PM EDT
Moon 5:33 AM EDT (7/7) 8:42 PM EDT (7/7)
Length of Visible Light 16h 41m
Length of Day
15h 27m
Waning Crescent, 0% of the Moon is Illuminated
Jul 7
Waning Crescent
Jul 8
New
Jul 15
First Quarter
Jul 22
Full
Jul 29
Last Quarter

Hourly Weather History & Observations

Time (EDT) Temp. Heat Index Dew Point Humidity Pressure Visibility Wind Dir Wind Speed Gust Speed Precip Events Conditions
12:54 AM 66.9 °F - 63.0 °F 87% 29.99 in 9.0 mi Calm Calm - N/A   Clear
1:54 AM 66.9 °F - 62.1 °F 84% 29.97 in 9.0 mi SSW 3.5 mph - N/A   Clear
2:54 AM 63.0 °F - 60.1 °F 90% 29.96 in 8.0 mi Calm Calm - N/A   Clear
3:54 AM 62.1 °F - 60.1 °F 93% 29.96 in 8.0 mi Calm Calm - N/A   Clear
4:54 AM 62.1 °F - 60.1 °F 93% 29.95 in 7.0 mi Calm Calm - N/A   Clear
5:54 AM 60.1 °F - 59.0 °F 96% 29.96 in 6.0 mi Calm Calm - N/A   Clear
6:54 AM 64.0 °F - 61.0 °F 90% 29.96 in 4.0 mi Calm Calm - N/A   Clear
7:54 AM 68.0 °F - 61.0 °F 78% 29.97 in 8.0 mi Calm Calm - N/A   Clear
8:54 AM 73.9 °F - 64.0 °F 71% 29.98 in 9.0 mi NW 4.6 mph - N/A   Clear
9:54 AM 77.0 °F - 62.1 °F 60% 29.98 in 10.0 mi West 4.6 mph - N/A   Partly Cloudy
10:54 AM 80.1 °F 81.1 °F 61.0 °F 52% 29.96 in 10.0 mi WSW 4.6 mph - N/A   Clear
11:54 AM 82.0 °F 82.0 °F 57.9 °F 44% 29.97 in 10.0 mi WNW 3.5 mph - N/A   Clear
12:54 PM 84.0 °F 84.5 °F 62.1 °F 47% 29.96 in 10.0 mi Calm Calm - N/A   Clear
1:54 PM 84.9 °F 84.2 °F 57.9 °F 40% 29.94 in 10.0 mi SSW 4.6 mph - N/A   Clear
2:54 PM 86.0 °F 85.4 °F 59.0 °F 40% 29.93 in 10.0 mi SE 6.9 mph - N/A   Clear
3:54 PM 86.0 °F 86.1 °F 61.0 °F 43% 29.92 in 10.0 mi ESE 10.4 mph - N/A   Clear
4:54 PM 86.0 °F 85.7 °F 60.1 °F 41% 29.91 in 10.0 mi SSE 9.2 mph - N/A   Scattered Clouds
5:54 PM 80.1 °F 81.9 °F 64.9 °F 60% 29.91 in 10.0 mi East 4.6 mph - N/A   Mostly Cloudy
6:54 PM 82.9 °F 84.6 °F 64.9 °F 54% 29.91 in 10.0 mi Variable 3.5 mph - N/A   Mostly Cloudy
7:54 PM 82.0 °F 84.1 °F 66.0 °F 58% 29.92 in 10.0 mi NNE 4.6 mph - N/A   Overcast
8:54 PM 79.0 °F - 64.9 °F 62% 29.94 in 10.0 mi North 12.7 mph 24.2 mph N/A   Mostly Cloudy
9:54 PM 75.9 °F - 64.0 °F 67% 29.95 in 4.0 mi NW 3.5 mph - 0.00 in Rain Light Rain
10:54 PM 70.0 °F - 64.0 °F 81% 29.95 in 10.0 mi Calm Calm - 0.00 in   Clear
11:54 PM 70.0 °F - 64.0 °F 81% 29.97 in 10.0 mi West 4.6 mph - N/A   Partly Cloudy